(236927) = 2007 TC194

Discovered at Catalina on 2007-10-07 by CSS.

Orbit

Orbit type: Main Belt

Note: WebGL enabled browser required.

epoch2023-09-13.0
epoch JD2460200.5
perihelion date2018-05-25.25658
perihelion JD2458263.75658
argument of perihelion (°)348.84151
ascending node (°)2.18115
inclination (°)13.86705
eccentricity0.0358596
perihelion distance (AU)3.0010145
Tisserand w.r.t. Jupiter3.2
ΔV w.r.t. Earth (km/sec)11.6
semimajor axis (AU)3.1126323
mean anomaly (°)347.60356
mean daily motion (°/day)0.17947840
aphelion distance (AU)3.224
period (years)5.49
P-vector [x]0.98753547
P-vector [y]-0.11954661
P-vector [z]-0.10238313
Q-vector [x]0.15713209
Q-vector [y]0.78649412
Q-vector [z]0.59727423
absolute magnitude15.58
phase slope0.15
uncertainty0
referenceMPO 778675
observations used304
oppositions13
arc length (days)8088
first opposition used2001
last opposition used2023
residual rms (arc-secs)0.66
perturbers coarse indicatorM-v
perturbers precise indicator003Ek
first observation date used2001-08-25.0
last observation date used2023-10-17.0
computer nameMPCLINUX
JD of orbit computation2456700.389977
perihelion JD uncertainty (days)4.9222E-04
argument of perihelion uncertainty (°)8.9421E-05
ascending node uncertainty (°)1.9001E-05
inclination uncertainty (°)7.0524E-06
eccentricity uncertainty 8.6748E-08
perihelion distance uncertainty (AU)2.7393E-07
Minimum Orbit Intersection Distances (in AU)
for orbit epoch: 2460200.5, reference: E2023-U59
Mercury2.59958
Venus2.2739
Earth1.99657
Mars1.56269
Jupiter1.95419
Saturn6.04235
Uranus15.2271
Neptune26.8454

Observations

316 total observations over interval: 2001 08 25.35576 – 2023 10 17.185028
These data are available for download (format description).

Date (UT) J2000 RA J2000 Dec Magn Location Ref
2001 08 25.35576 22 53 20.03 -17 15 33.3 20.7   608 – Haleakala-AMOS MPS 226993
2001 08 25.36633 22 53 19.52 -17 15 35.1 21.1   608 – Haleakala-AMOS MPS 226993
2001 08 25.37702 22 53 19.02 -17 15 36.3 21.3   608 – Haleakala-AMOS MPS 226993
2004 02 11.28183 09 37 19.00 +28 55 18.9 19.6   644 – Palomar Mountain/NEAT MPS 226993
2004 02 11.36046 09 37 14.35 +28 55 25.7 19.8   644 – Palomar Mountain/NEAT MPS 226993
2004 02 11.42448 09 37 10.63 +28 55 31.0 19.7   644 – Palomar Mountain/NEAT MPS 226993
2004 03 18.280170 09 09 50.209 +28 08 45.12 20.77 V 645 – Apache Point-Sloan Digital Sky Survey MPS 226993
2004 03 18.283642 09 09 50.118 +28 08 44.29 21.51   645 – Apache Point-Sloan Digital Sky Survey MPS 226993
2004 04 15.201140 09 07 20.962 +25 47 12.71 21.66 V 645 – Apache Point-Sloan Digital Sky Survey MPS 226993
2004 04 15.204612 09 07 21.015 +25 47 11.36 22.40   645 – Apache Point-Sloan Digital Sky Survey MPS 226993
2004 04 16.188830 09 07 35.133 +25 41 11.12 21.61 V 645 – Apache Point-Sloan Digital Sky Survey MPS 226993
2004 04 16.192302 09 07 35.185 +25 41 09.78 22.31   645 – Apache Point-Sloan Digital Sky Survey MPS 226993
2005 05 11.25531 13 22 12.53 -19 57 12.2 19.9   644 – Palomar Mountain/NEAT MPS 226993
2005 05 11.28043 13 22 11.47 -19 57 09.0 20.2   644 – Palomar Mountain/NEAT MPS 226993
2005 05 11.30816 13 22 10.24 -19 57 05.0 19.8   644 – Palomar Mountain/NEAT MPS 226993
2007 09 14.29983 01 20 34.77 +12 28 50.1 20.2   704 – Lincoln Laboratory ETS, New Mexico MPS 317988
2007 09 14.32308 01 20 33.90 +12 28 52.5 20.4   704 – Lincoln Laboratory ETS, New Mexico MPS 317988
2007 09 14.33478 01 20 33.39 +12 28 52.6 20.6   704 – Lincoln Laboratory ETS, New Mexico MPS 317988
2007 09 20.32711 01 16 27.44 +12 33 51.9 19.4 V 703 – Catalina Sky Survey MPS 223660
2007 09 20.33421 01 16 27.22 +12 33 52.5 20.0 V 703 – Catalina Sky Survey MPS 223660
2007 09 20.34137 01 16 26.86 +12 33 52.0 19.7 V 703 – Catalina Sky Survey MPS 223660
2007 09 20.34851 01 16 26.40 +12 33 53.7 19.6 V 703 – Catalina Sky Survey MPS 223660
2007 10 07.32050 01 02 17.66 +12 28 08.6 19.6 V 703 – Catalina Sky Survey MPS 223660
2007 10 07.32479 01 02 17.41 +12 28 09.1 19.7 V 703 – Catalina Sky Survey MPS 223660
2007 10 07.32915 01 02 17.19 +12 28 08.7 20.9 V 703 – Catalina Sky Survey MPS 223660
2007 10 07.33346 01 02 16.94 +12 28 07.6 19.7 V 703 – Catalina Sky Survey MPS 223660
2007 10 09.27519 01 00 32.52 +12 25 54.4 19.7   704 – Lincoln Laboratory ETS, New Mexico MPS 317988
2007 10 09.28616 01 00 31.80 +12 25 52.4 20.3   704 – Lincoln Laboratory ETS, New Mexico MPS 317988
2007 10 09.29712 01 00 31.10 +12 25 52.2 19.7   704 – Lincoln Laboratory ETS, New Mexico MPS 317988
2007 10 11.30301 00 58 43.06 +12 23 18.7 19.8 V G96 – Mt. Lemmon Survey MPS 223660
2007 10 11.31010 00 58 42.67 +12 23 18.1 19.1 V G96 – Mt. Lemmon Survey MPS 223660
2007 10 11.31720 00 58 42.27 +12 23 17.3 19.1 V G96 – Mt. Lemmon Survey MPS 223660
2007 10 11.32432 00 58 41.88 +12 23 16.8 18.9 V G96 – Mt. Lemmon Survey MPS 223660
2007 10 12.20418 00 57 54.73 +12 22 04.1 19.5   704 – Lincoln Laboratory ETS, New Mexico MPS 317988
2007 10 12.21522 00 57 54.05 +12 22 03.4 19.9   704 – Lincoln Laboratory ETS, New Mexico MPS 317988
2007 10 12.22626 00 57 53.49 +12 22 02.7 20.1   704 – Lincoln Laboratory ETS, New Mexico MPS 317988
2007 10 12.23752 00 57 52.82 +12 22 00.9 20.4   704 – Lincoln Laboratory ETS, New Mexico MPS 317988
2007 10 12.24857 00 57 52.23 +12 22 01.8 20.2   704 – Lincoln Laboratory ETS, New Mexico MPS 317988
2007 10 13.21703 00 57 00.32 +12 20 38.2 19.5 V 703 – Catalina Sky Survey MPS 223660
2007 10 13.22454 00 56 59.78 +12 20 38.6 19.8 V 703 – Catalina Sky Survey MPS 223660
2007 10 13.23206 00 56 59.38 +12 20 36.8 18.9 V 703 – Catalina Sky Survey MPS 223660
2007 10 13.23954 00 56 59.02 +12 20 37.1 19.8 V 703 – Catalina Sky Survey MPS 223660
2007 10 20.26910 00 50 49.84 +12 09 31.6 19.6 V 703 – Catalina Sky Survey MPS 223660
2007 10 20.27603 00 50 49.41 +12 09 31.1 20.4 V 703 – Catalina Sky Survey MPS 223660
2007 10 20.28297 00 50 49.12 +12 09 29.6 19.7 V 703 – Catalina Sky Survey MPS 223660
2007 10 20.28987 00 50 48.76 +12 09 28.7 20.1 V 703 – Catalina Sky Survey MPS 223660
2007 11 02.24432 00 40 52.02 +11 47 43.8 19.8   704 – Lincoln Laboratory ETS, New Mexico MPS 225050
2007 11 02.25595 00 40 51.48 +11 47 43.2 20.1   704 – Lincoln Laboratory ETS, New Mexico MPS 225050
2007 11 02.26760 00 40 51.08 +11 47 41.8 20.6   704 – Lincoln Laboratory ETS, New Mexico MPS 225050
2007 11 02.29088 00 40 50.08 +11 47 38.3 20.2   704 – Lincoln Laboratory ETS, New Mexico MPS 225050
2007 11 07.20939 00 37 47.07 +11 40 28.5 19.8   704 – Lincoln Laboratory ETS, New Mexico MPS 225050
2007 11 07.23395 00 37 46.15 +11 40 26.4 20.2   704 – Lincoln Laboratory ETS, New Mexico MPS 225050
2007 11 07.24626 00 37 45.73 +11 40 25.5 20.2   704 – Lincoln Laboratory ETS, New Mexico MPS 225050
2010 01 08.50095 12 10 25.71 +04 36 27.4 21.0 V G96 – Mt. Lemmon Survey MPS 310269
2010 01 08.50663 12 10 25.75 +04 36 26.8 21.4 V G96 – Mt. Lemmon Survey MPS 310269
2010 01 08.51241 12 10 25.86 +04 36 25.3 21.5 V G96 – Mt. Lemmon Survey MPS 310269
2010 01 08.51817 12 10 25.96 +04 36 25.2 21.3 V G96 – Mt. Lemmon Survey MPS 310269
2010 02 15.565362 12 04 23.175 +04 08 19.97 20.86 g F51 – Pan-STARRS 1, Haleakala MPS 319383
2010 02 15.575206 12 04 22.838 +04 08 20.40 20.76 g F51 – Pan-STARRS 1, Haleakala MPS 319383
2010 02 19.41518 12 02 05.96 +04 12 55.7 21.0 V G96 – Mt. Lemmon Survey MPS 313411
2010 02 19.41956 12 02 05.82 +04 12 55.8 20.4 V G96 – Mt. Lemmon Survey MPS 313411
2010 02 19.42392 12 02 05.64 +04 12 56.1 20.1 V G96 – Mt. Lemmon Survey MPS 313411
2010 02 19.42827 12 02 05.46 +04 12 56.4 20.4 V G96 – Mt. Lemmon Survey MPS 313411
2010 03 12.29974 11 46 04.69 +04 49 18.3 20.3 V 703 – Catalina Sky Survey MPS 317988
2010 03 12.30741 11 46 04.36 +04 49 18.3 20.8 V 703 – Catalina Sky Survey MPS 317988
2010 03 12.31506 11 46 04.00 +04 49 20.4 19.6 V 703 – Catalina Sky Survey MPS 317988
2010 03 12.32267 11 46 03.57 +04 49 20.6 20.5 V 703 – Catalina Sky Survey MPS 317988
2010 03 12.37024 11 46 00.98 +04 49 27.1 20.2 V 703 – Catalina Sky Survey MPS 317988
2010 03 12.37779 11 46 00.58 +04 49 26.7 19.8 V 703 – Catalina Sky Survey MPS 317988
2010 03 12.38549 11 46 00.19 +04 49 28.0 19.6 V 703 – Catalina Sky Survey MPS 317988
2010 03 12.39315 11 45 59.76 +04 49 29.6 19.6 V 703 – Catalina Sky Survey MPS 317988
2010 03 12.475258 11 45 55.610 +04 49 39.35 19.67 r F51 – Pan-STARRS 1, Haleakala MPS 338873
2010 03 12.485699 11 45 55.059 +04 49 40.41 20.26 r F51 – Pan-STARRS 1, Haleakala MPS 338873
2010 03 18.32924 11 40 52.46 +05 00 22.8 20.1   704 – Lincoln Laboratory ETS, New Mexico MPS 319383
2010 03 18.35125 11 40 51.29 +05 00 23.9 19.9   704 – Lincoln Laboratory ETS, New Mexico MPS 319383
2010 03 18.36229 11 40 50.67 +05 00 25.6 20.0   704 – Lincoln Laboratory ETS, New Mexico MPS 319383
2010 04 07.28286 11 25 01.70 +05 23 28.9 20.3 V G96 – Mt. Lemmon Survey MPS 322135
2010 04 07.28884 11 25 01.45 +05 23 29.2 20.6 V G96 – Mt. Lemmon Survey MPS 322135
2010 04 07.29491 11 25 01.20 +05 23 29.5 20.1 V G96 – Mt. Lemmon Survey MPS 322135
2010 04 07.30089 11 25 00.94 +05 23 29.5 20.3 V G96 – Mt. Lemmon Survey MPS 322135
2010 04 17.22512 11 19 06.63 +05 22 39.8 20.4 V G96 – Mt. Lemmon Survey MPS 324817
2010 04 17.23098 11 19 06.49 +05 22 39.4 20.4 V G96 – Mt. Lemmon Survey MPS 324817
2010 04 17.23692 11 19 06.27 +05 22 39.5 20.4 V G96 – Mt. Lemmon Survey MPS 324817
2010 04 17.24281 11 19 06.09 +05 22 39.3 20.3 V G96 – Mt. Lemmon Survey MPS 324817
2010 06 04.650843 11 18 23.966 +02 56 49.96   C51 – WISE MPS 903643
2010 06 04.783019 11 18 27.487 +02 56 10.57   C51 – WISE MPS 903643
2010 06 04.783146 11 18 27.485 +02 56 08.09   C51 – WISE MPS 903643
2010 06 04.915323 11 18 30.919 +02 55 27.37   C51 – WISE MPS 903643
2010 06 04.915450 11 18 30.953 +02 55 27.73   C51 – WISE MPS 903643
2010 06 05.047626 11 18 34.442 +02 54 45.47   C51 – WISE MPS 903643
2010 06 05.113843 11 18 36.139 +02 54 25.06   C51 – WISE MPS 903643
2010 06 05.179931 11 18 37.963 +02 54 04.46   C51 – WISE MPS 903643
2010 06 05.246147 11 18 39.710 +02 53 43.44   C51 – WISE MPS 903643
